[[{"header":{"parameterUnit":"m.s-1","parameterCategory":1,"la1":30.2991,"la2":30.254,"lo1":-89.0895,"lo2":-89.0444,"dy":0.0017,"dx":0.0017,"nx":28,"ny":28,"refTime":"2023-09-04T03:00:00:Z","depth":0,"parameterNumber":2,"parameterNumberName":"U-component_of_WINDS"},"data":[0,0,0,0,0,0,0,0,0,0,0,0,0,0,0,0,0,0,0,0,0,0,0,0,0,0,0,0,0,0,0,0,0,0,0,0,0,0,0,0,0,0,0,0,0,0,0,0,0,0,0,0,0,0,0,0,0,0,-3.6451,-3.6451,0,-3.6475,-3.6476,-3.6476,-3.6425,-3.6424,-3.6422,-3.642,-3.6445,-3.6447,-3.6449,0,0,0,0,0,0,0,0,0,0,0,0,0,-3.636,-3.6362,-3.6451,-3.6451,-3.6452,-3.6475,-3.6476,-3.6476,-3.6426,-3.6424,-3.6422,-3.642,-3.6444,-3.6447,-3.645,0,0,0,0,0,0,0,0,0,0,0,0,0,-3.6393,-3.6362,-3.6451,-3.6429,-3.6428,-3.6475,-3.6476,-3.6476,-3.6426,-3.6423,-3.6421,-3.6419,-3.6443,-3.6447,-3.645,-3.652,0,0,-3.646,-3.6461,0,0,0,0,0,0,0,0,-3.6392,-3.6397,-3.6432,-3.6431,-3.6429,-3.6445,-3.6452,-3.6491,-3.6427,-3.6427,-3.642,-3.6417,-3.6447,-3.645,-3.646,-3.6521,-3.6522,-3.646,-3.6462,-3.6464,-3.6465,0,0,0,0,0,0,0,-3.6389,-3.6395,-3.6461,-3.6433,-3.6431,-3.6418,-3.642,-3.646,-3.645,-3.6426,-3.6423,-3.6426,-3.6446,-3.6457,-3.646,-3.6522,-3.646,-3.6463,-3.6465,-3.6466,-3.664,-3.6642,0,0,0,0,0,0,-3.639,-3.6394,-3.646,-3.6461,-3.6404,-3.6422,-3.6424,-3.6442,-3.645,-3.6449,-3.6428,-3.6424,-3.6452,-3.6456,-3.6461,-3.6541,-3.6464,-3.6467,-3.6469,-3.6637,-3.664,-3.6643,0,0,0,0,0,0,-3.6388,-3.6396,-3.6459,-3.6427,-3.6434,-3.6426,-3.6447,-3.6444,-3.6455,-3.6451,-3.6449,-3.6442,-3.6451,-3.6456,-3.6505,-3.6541,-3.6468,-3.6471,-3.6634,-3.6638,-3.6642,-3.6703,0,0,0,0,0,0,-3.6386,-3.6396,-3.6422,-3.6428,-3.6436,-3.6503,-3.6449,-3.6446,-3.6461,-3.6455,-3.6463,-3.6462,-3.6449,-3.65,-3.6508,-3.6544,-3.6474,-3.6631,-3.6636,-3.6641,-3.6698,-3.6709,-3.6718,0,0,0,0,0,-3.6383,-3.6439,-3.6424,-3.6432,-3.6469,-3.6505,-3.651,-3.6494,-3.6464,-3.649,-3.6488,-3.6462,-3.6537,-3.6506,-3.6514,-3.6552,-3.6628,-3.6634,-3.664,-3.6693,-3.6707,-3.6718,0,0,0,0,0,0,-3.6439,-3.644,-3.6423,-3.6483,-3.6494,-3.6497,-3.6529,-3.6509,-3.6529,-3.6523,-3.6502,-3.6504,-3.6557,-3.656,-3.6525,-3.6619,-3.6577,-3.6585,-3.6615,-3.6627,-3.6637,-3.6635,-3.6477,0,0,0,0,0,-3.6458,-3.6488,-3.6487,-3.654,-3.6547,-3.6538,-3.6553,-3.6539,-3.6551,-3.6555,-3.6556,-3.6568,-3.6593,-3.6611,-3.6635,-3.6699,-3.6699,-3.6729,-3.6739,-3.6747,-3.6754,-3.6786,-3.6798,-3.6663,-3.6663,-3.6662,0,0,-3.6498,-3.6503,-3.6523,-3.6552,-3.6559,-3.659,-3.6542,-3.6577,-3.6599,-3.656,-3.6606,-3.6607,-3.6619,-3.6675,-3.67,-3.6679,-3.6792,-3.6755,-3.6762,-3.6763,-3.6793,-3.6806,-3.6817,-3.6667,-3.6666,-3.6665,0,0,-3.6587,-3.6594,-3.6638,-3.6646,-3.6658,-3.6651,-3.6662,-3.6667,-3.6666,-3.6712,-3.6683,-3.671,-3.6755,-3.6764,-3.6774,-3.6866,-3.6842,-3.6874,-3.6926,-3.6958,-3.6968,-3.6978,-3.7008,-3.702,-3.6881,-3.6881,-3.6881,0,-3.6635,-3.6681,-3.6663,-3.67,-3.6712,-3.6679,-3.6723,-3.6732,-3.6751,-3.676,-3.6737,-3.6792,-3.6798,-3.6854,-3.6877,-3.6887,-3.6897,-3.6872,-3.6968,-3.6978,-3.6986,-3.7015,-3.7027,-3.6885,-3.6885,-3.6884,-3.6884,0,-3.6739,-3.677,-3.6805,-3.6823,-3.684,-3.688,-3.6868,-3.6887,-3.6873,-3.6868,-3.6914,-3.692,-3.6943,-3.6957,-3.6943,-3.7011,-3.6997,-3.6972,-3.6929,-3.7003,-3.7029,-3.7041,-3.689,-3.6889,-3.6888,-3.6887,0,0,-3.6862,-3.687,-3.6883,-3.689,-3.69,-3.6924,-3.6963,-3.6985,-3.7001,-3.7016,-3.7046,-3.7085,-3.7061,-3.7073,-3.706,-3.7088,-3.7158,-3.7059,-3.7058,-3.7075,-3.7231,-3.7248,-3.7262,-3.7143,-3.7145,-3.7146,-3.7229,0,-3.6948,-3.7014,-3.6999,-3.7063,-3.7091,-3.706,-3.7093,-3.7102,-3.7099,-3.7122,-3.7119,-3.7146,-3.7113,-3.712,-3.7146,-3.7144,-3.7188,-3.7138,-3.7169,-3.7171,-3.7165,-3.7276,-3.7295,-3.7372,-3.7239,-3.7241,-3.7243,0,-3.7057,-3.7075,-3.7142,-3.7146,-3.7157,-3.7187,-3.7205,-3.7229,-3.7239,-3.7234,-3.7247,-3.7229,-3.7266,-3.7224,-3.7274,-3.724,-3.7252,-3.7253,-3.7256,-3.7256,-3.7209,-3.7277,-3.7397,-3.7408,-3.7259,-3.7258,-3.7257,0,-3.7138,-3.7179,-3.7223,-3.7231,-3.7237,-3.7259,-3.7262,-3.727,-3.7284,-3.7301,-3.7309,-3.7331,-3.7342,-3.7358,-3.7345,-3.7317,-3.7397,-3.7355,-3.7393,-3.7393,-3.7409,-3.7408,-3.7531,-3.7421,-3.7421,-3.7421,-3.7421,0,-3.7234,-3.7276,-3.7259,-3.7287,-3.7332,-3.7314,-3.7359,-3.736,-3.7366,-3.7392,-3.7368,-3.7393,-3.7375,-3.7399,-3.7389,-3.7431,-3.7437,-3.7433,-3.743,-3.7434,-3.7434,-3.744,-3.7434,-3.7424,-3.7423,-3.7423,-3.7422,0,-3.7332,-3.7323,-3.7369,-3.7371,-3.7372,-3.7405,-3.7407,-3.7432,-3.7427,-3.746,-3.7467,-3.7459,-3.7486,-3.7475,-3.7503,-3.7497,-3.7549,-3.754,-3.7545,-3.7542,-3.758,-3.7576,-3.7709,-3.7725,-3.7607,-3.7609,-3.7609,0,-3.7393,-3.7424,-3.7429,-3.7444,-3.745,-3.7476,-3.7489,-3.7474,-3.7489,-3.7502,-3.7525,-3.7549,-3.7567,-3.761,-3.7607,-3.7628,-3.7617,-3.7663,-3.762,-3.7623,-3.7615,-3.7613,-3.7615,-3.7671,-3.7672,-3.7673,-3.7674,0,-3.7502,-3.7495,-3.7516,-3.7535,-3.7553,-3.7567,-3.758,-3.7594,-3.7578,-3.7597,-3.7623,-3.7637,-3.7665,-3.7689,-3.7707,-3.771,-3.7689,-3.7688,-3.7697,-3.7701,-3.7702,-3.77,-3.7566,-3.7684,-3.7683,-3.7682,-3.7682,-3.7681,-3.7581,-3.7606,-3.7613,-3.7637,-3.7645,-3.7657,-3.7679,-3.7677,-3.7699,-3.772,-3.7709,-3.7739,-3.7747,-3.7769,-3.7776,-3.7798,-3.7781,-3.7795,-3.7798,-3.7802,-3.7805,-3.77,-3.7802,-3.7802,-3.7802,-3.7801,-3.7801,0,-3.7687,-3.7689,-3.7712,-3.7729,-3.7748,-3.7726,-3.7739,-3.7755,-3.7782,-3.7791,-3.7809,-3.7838,-3.7861,-3.7859,-3.788,-3.7898,-3.7889,-3.7904,-3.7901,-3.7902,-3.7821,-3.781,-3.7911,-3.7911,-3.7911,-3.7911,-3.7911,-3.7911,-3.7744,-3.7785,-3.7779,-3.7823,-3.7825,-3.7854,-3.7862,-3.7873,-3.788,-3.7913,-3.7932,-3.793,-3.7935,-3.7955,-3.7975,-3.7973,-3.7981,-3.8,-3.7995,-3.7919,-3.7908,-3.7897,-3.7886,-3.8002,-3.8002,-3.8073,-3.8074,-3.8074]},{"header":{"parameterUnit":"m.s-1","parameterCategory":1,"la1":30.2991,"la2":30.254,"lo1":-89.0895,"lo2":-89.0444,"dy":0.0017,"dx":0.0017,"nx":28,"ny":28,"refTime":"2023-09-04T03:00:00:Z","depth":0,"parameterNumber":3,"parameterNumberName":"V-component_of_WINDS"},"data":[0,0,0,0,0,0,0,0,0,0,0,0,0,0,0,0,0,0,0,0,0,0,0,0,0,0,0,0,0,0,0,0,0,0,0,0,0,0,0,0,0,0,0,0,0,0,0,0,0,0,0,0,0,0,0,0,0,0,4.9534,4.9534,0,4.955,4.955,4.9551,4.9463,4.946,4.9458,4.9455,4.9472,4.9474,4.9477,0,0,0,0,0,0,0,0,0,0,0,0,0,4.9424,4.9427,4.9534,4.9534,4.9534,4.955,4.955,4.9551,4.9463,4.946,4.9457,4.9454,4.9471,4.9474,4.9478,0,0,0,0,0,0,0,0,0,0,0,0,0,4.9459,4.9427,4.9534,4.9492,4.9489,4.955,4.955,4.9551,4.9464,4.946,4.9456,4.9453,4.947,4.9474,4.9478,4.958,0,0,4.9491,4.9493,0,0,0,0,0,0,0,0,4.9458,4.9464,4.9498,4.9495,4.9491,4.95,4.9518,4.956,4.9465,4.9473,4.9455,4.9451,4.9484,4.9487,4.9499,4.9581,4.9581,4.9491,4.9494,4.9496,4.9497,0,0,0,0,0,0,0,4.9455,4.9462,4.954,4.9499,4.9495,4.9472,4.9473,4.9525,4.95,4.9472,4.9466,4.9469,4.9482,4.9495,4.9498,4.9582,4.9491,4.9495,4.9497,4.9499,4.9744,4.9748,0,0,0,0,0,0,4.9458,4.9461,4.954,4.9541,4.9465,4.9477,4.9478,4.9501,4.9499,4.9495,4.9472,4.9465,4.9489,4.9493,4.9499,4.9615,4.9495,4.9499,4.9502,4.974,4.9745,4.9749,0,0,0,0,0,0,4.9456,4.9466,4.9539,4.9499,4.9507,4.9483,4.951,4.9504,4.9516,4.9499,4.9494,4.949,4.9487,4.9493,4.9559,4.9614,4.9501,4.9505,4.9736,4.9742,4.9747,4.985,0,0,0,0,0,0,4.9454,4.9466,4.9505,4.9501,4.9509,4.9601,4.9513,4.9507,4.9524,4.9515,4.9515,4.9511,4.9484,4.9554,4.9564,4.9618,4.9508,4.973,4.9738,4.9745,4.9841,4.9858,4.9873,0,0,0,0,0,4.945,4.9534,4.9508,4.9518,4.9558,4.9604,4.9609,4.9576,4.9529,4.9567,4.9556,4.9511,4.9607,4.9561,4.9572,4.9628,4.9727,4.9736,4.9745,4.9834,4.9855,4.9873,0,0,0,0,0,0,4.9546,4.9533,4.9503,4.9589,4.9598,4.9589,4.9636,4.96,4.9623,4.9613,4.9572,4.9572,4.9645,4.9644,4.9593,4.9725,4.9659,4.967,4.9723,4.9743,4.9758,4.9756,4.9512,0,0,0,0,0,4.9578,4.9617,4.9603,4.9679,4.9685,4.9661,4.968,4.9653,4.9661,4.9665,4.9658,4.9668,4.9699,4.9721,4.975,4.9841,4.9838,4.9885,4.9901,4.9914,4.9924,4.9969,4.9988,4.9779,4.9779,4.9779,0,0,4.9642,4.964,4.9667,4.9698,4.9703,4.9743,4.9664,4.9711,4.974,4.9672,4.9734,4.973,4.9737,4.9816,4.985,4.9816,4.9981,4.9926,4.9936,4.9939,4.998,5.0,5.0017,4.9785,4.9784,4.9783,0,0,4.978,4.9784,4.9846,4.9851,4.9858,4.984,4.9856,4.9852,4.9846,4.9907,4.9856,4.989,4.9947,4.9953,4.9964,5.0102,5.0061,5.0113,5.0195,5.024,5.0256,5.027,5.0317,5.0334,5.0123,5.0124,5.0124,0,4.9859,4.9918,4.9882,4.9932,4.9946,4.9886,4.9947,4.9954,4.9971,4.9981,4.9944,5.0012,5.0013,5.009,5.0124,5.0136,5.015,5.0112,5.0257,5.0271,5.0284,5.0327,5.0345,5.013,5.0129,5.0128,5.0128,0,5.0014,5.0056,5.0105,5.0121,5.0141,5.0196,5.0168,5.0192,5.0164,5.015,5.0212,5.0211,5.0237,5.0254,5.0228,5.0328,5.0306,5.0264,5.0196,5.031,5.035,5.0367,5.0138,5.0136,5.0134,5.0133,0,0,5.0213,5.0206,5.0225,5.023,5.0232,5.0263,5.0316,5.034,5.0361,5.0374,5.0415,5.0464,5.0423,5.0435,5.0409,5.0449,5.0554,5.0401,5.04,5.0427,5.0661,5.0691,5.0711,5.0528,5.0531,5.0534,5.0659,0,5.0345,5.0433,5.0401,5.049,5.0526,5.0469,5.0514,5.052,5.0508,5.0537,5.0524,5.0558,5.0503,5.051,5.0547,5.0534,5.06,5.0525,5.0564,5.0566,5.0561,5.0733,5.0765,5.0883,5.0675,5.0678,5.068,0,5.0511,5.0529,5.0622,5.0615,5.0629,5.067,5.0688,5.0717,5.0722,5.071,5.0724,5.0688,5.0737,5.0672,5.0738,5.0687,5.0701,5.0697,5.0701,5.0701,5.0628,5.0735,5.0921,5.0938,5.0705,5.0703,5.0701,0,5.0643,5.0691,5.0751,5.0758,5.0752,5.0782,5.0781,5.0782,5.0798,5.0815,5.0824,5.0847,5.0859,5.0877,5.0848,5.0804,5.0917,5.085,5.0908,5.0908,5.0932,5.0931,5.112,5.0947,5.0946,5.0946,5.0946,0,5.0792,5.0851,5.081,5.0847,5.091,5.0872,5.0935,5.0928,5.0929,5.0963,5.0916,5.0949,5.091,5.0939,5.0918,5.0974,5.098,5.0971,5.0964,5.0974,5.0975,5.0981,5.0971,5.0951,5.095,5.0949,5.0948,0,5.095,5.0925,5.0986,5.0976,5.0974,5.1021,5.1011,5.1044,5.1029,5.1072,5.108,5.1056,5.1087,5.1061,5.1092,5.1077,5.1151,5.1134,5.1149,5.1143,5.1201,5.1195,5.1399,5.1423,5.1237,5.1238,5.124,0,5.1045,5.1088,5.1081,5.11,5.1102,5.1133,5.1148,5.1113,5.1131,5.1138,5.117,5.1197,5.1217,5.127,5.1255,5.1277,5.1259,5.1329,5.1262,5.1269,5.1256,5.1253,5.1256,5.1341,5.1344,5.1346,5.1347,0,5.1217,5.1202,5.1226,5.1245,5.1264,5.1278,5.1288,5.1306,5.1269,5.1292,5.1323,5.1338,5.1368,5.1395,5.1412,5.1411,5.1373,5.1368,5.1382,5.1391,5.1397,5.1392,5.1183,5.1363,5.1362,5.1361,5.136,5.1359,5.1344,5.1378,5.1378,5.1405,5.1408,5.1418,5.1448,5.1435,5.146,5.1481,5.1459,5.1496,5.1497,5.1517,5.152,5.1547,5.1518,5.1539,5.1544,5.1549,5.1556,5.1395,5.1551,5.155,5.155,5.155,5.1549,0,5.1511,5.1507,5.1533,5.1547,5.1568,5.153,5.1538,5.1558,5.159,5.1595,5.1614,5.1649,5.1674,5.1661,5.1682,5.1707,5.1689,5.1713,5.171,5.1709,5.1583,5.1567,5.1727,5.1727,5.1727,5.1727,5.1726,5.1726,5.16,5.1654,5.1639,5.1694,5.169,5.1724,5.1732,5.174,5.1743,5.1783,5.1803,5.1794,5.1791,5.1811,5.1832,5.1828,5.1837,5.1866,5.1855,5.1736,5.1719,5.1702,5.1687,5.1869,5.1869,5.1979,5.198,5.1981]}]]